[[{"header":{"parameterUnit":"m.s-1","parameterCategory":1,"la1":30.2991,"la2":30.254,"lo1":-89.0895,"lo2":-89.0444,"dy":0.0017,"dx":0.0017,"nx":28,"ny":28,"refTime":"2024-10-21T09:00:00:Z","depth":0,"parameterNumber":2,"parameterNumberName":"U-component_of_WINDS"},"data":[0,0,0,0,0,0,0,0,0,0,0,0,0,0,0,0,0,0,0,0,0,0,0,0,0,0,0,0,0,0,0,0,0,0,0,0,0,0,0,0,0,0,0,0,0,0,0,0,0,0,0,0,0,0,0,0,0,0,-1.9828,-1.9827,0,-1.975,-1.9749,-1.9749,-1.9649,-1.9647,-1.9645,-1.9644,-1.9566,-1.9566,-1.9565,0,0,0,0,0,0,0,0,0,0,0,0,0,-1.9893,-1.9892,-1.9828,-1.9827,-1.9826,-1.9751,-1.9749,-1.9748,-1.9649,-1.9647,-1.9645,-1.9643,-1.9567,-1.9566,-1.9565,0,0,0,0,0,0,0,0,0,0,0,0,0,-1.9845,-1.9892,-1.9828,-1.9767,-1.9761,-1.9751,-1.9749,-1.9748,-1.9649,-1.9647,-1.9644,-1.9642,-1.9567,-1.9566,-1.9565,-1.9609,0,0,-1.9563,-1.9562,0,0,0,0,0,0,0,0,-1.9848,-1.9843,-1.9777,-1.9771,-1.9764,-1.9707,-1.9744,-1.9702,-1.965,-1.9692,-1.9644,-1.9641,-1.9615,-1.961,-1.9601,-1.9605,-1.9602,-1.9563,-1.9562,-1.9562,-1.9562,0,0,0,0,0,0,0,-1.9852,-1.9846,-1.9797,-1.9776,-1.9769,-1.9745,-1.9735,-1.9735,-1.9668,-1.9688,-1.9681,-1.9673,-1.9611,-1.9602,-1.9599,-1.9601,-1.9563,-1.9562,-1.9561,-1.9561,-1.9641,-1.9643,0,0,0,0,0,0,-1.9864,-1.9849,-1.98,-1.9795,-1.9801,-1.9746,-1.9735,-1.9728,-1.9668,-1.9656,-1.9675,-1.9668,-1.9605,-1.96,-1.9595,-1.9646,-1.9562,-1.9561,-1.9561,-1.9638,-1.9642,-1.9644,0,0,0,0,0,0,-1.9865,-1.986,-1.9803,-1.982,-1.9811,-1.9747,-1.974,-1.9727,-1.9718,-1.9658,-1.9646,-1.9678,-1.9603,-1.9597,-1.9607,-1.9641,-1.9561,-1.956,-1.9635,-1.9639,-1.9643,-1.9745,0,0,0,0,0,0,-1.9868,-1.9861,-1.9876,-1.9821,-1.981,-1.9815,-1.9742,-1.9728,-1.9717,-1.9708,-1.9657,-1.9647,-1.96,-1.9609,-1.9606,-1.9639,-1.9559,-1.9632,-1.9637,-1.9642,-1.9738,-1.9752,-1.9763,0,0,0,0,0,-1.987,-1.9908,-1.9878,-1.9872,-1.9828,-1.9817,-1.9811,-1.9756,-1.972,-1.9736,-1.9697,-1.9648,-1.9638,-1.9611,-1.9607,-1.964,-1.963,-1.9636,-1.9641,-1.9732,-1.9749,-1.9763,0,0,0,0,0,0,-1.9969,-1.9899,-1.9865,-1.9886,-1.9858,-1.98,-1.9818,-1.9775,-1.9758,-1.975,-1.9683,-1.9673,-1.9692,-1.9666,-1.9638,-1.9681,-1.9627,-1.9632,-1.9697,-1.9712,-1.9725,-1.9732,-1.9559,0,0,0,0,0,-1.9993,-1.9989,-1.9929,-1.9953,-1.9941,-1.9882,-1.9875,-1.9836,-1.9805,-1.9793,-1.9755,-1.9728,-1.9718,-1.9713,-1.9701,-1.9733,-1.9723,-1.9754,-1.9767,-1.9777,-1.9784,-1.9802,-1.9817,-1.9664,-1.9664,-1.9663,0,0,-2.0043,-2.0004,-2.0006,-1.9972,-1.9946,-1.9945,-1.9873,-1.9874,-1.9874,-1.9793,-1.9801,-1.9773,-1.9738,-1.9761,-1.9769,-1.974,-1.9824,-1.9785,-1.9794,-1.9794,-1.981,-1.9825,-1.9838,-1.9668,-1.9667,-1.9666,0,0,-2.0134,-2.0103,-2.0121,-2.0097,-2.0059,-2.002,-2.0024,-1.9973,-1.9952,-1.9959,-1.9899,-1.9898,-1.9882,-1.9861,-1.9848,-1.9934,-1.9889,-1.9931,-1.9998,-2.0017,-2.0029,-2.004,-2.0074,-2.0086,-1.9937,-1.9937,-1.9938,0,-2.0201,-2.0197,-2.0136,-2.0142,-2.0131,-2.0057,-2.0076,-2.0056,-2.0016,-2.001,-1.9978,-1.9959,-1.993,-1.9948,-1.997,-1.996,-1.9966,-1.9938,-2.0032,-2.0042,-2.0051,-2.0083,-2.0095,-1.9943,-1.9942,-1.9942,-1.9941,0,-2.0283,-2.0281,-2.03,-2.0264,-2.0254,-2.0267,-2.021,-2.0207,-2.0169,-2.0134,-2.0144,-2.0107,-2.0087,-2.0088,-2.005,-2.0102,-2.0086,-2.0044,-1.9989,-2.0072,-2.0101,-2.0112,-1.9951,-1.9949,-1.9947,-1.9946,0,0,-2.0434,-2.0365,-2.0374,-2.0358,-2.0311,-2.0309,-2.032,-2.03,-2.0301,-2.0276,-2.0285,-2.0275,-2.0236,-2.0222,-2.0181,-2.0198,-2.0272,-2.0154,-2.0152,-2.018,-2.0331,-2.0366,-2.038,-2.0242,-2.0244,-2.0245,-2.0335,0,-2.0518,-2.0532,-2.0479,-2.0507,-2.0506,-2.0438,-2.0447,-2.0421,-2.0389,-2.0385,-2.0349,-2.0344,-2.0292,-2.0284,-2.0296,-2.0261,-2.0302,-2.0253,-2.0252,-2.0253,-2.0266,-2.0395,-2.043,-2.0517,-2.0346,-2.0348,-2.0349,0,-2.0618,-2.06,-2.0629,-2.0583,-2.0581,-2.059,-2.057,-2.0566,-2.0536,-2.0511,-2.0497,-2.045,-2.0459,-2.0405,-2.0418,-2.0386,-2.0382,-2.0365,-2.0367,-2.0367,-2.0308,-2.0401,-2.0543,-2.0557,-2.0365,-2.0364,-2.0363,0,-2.073,-2.0712,-2.0728,-2.0716,-2.0662,-2.0671,-2.0649,-2.0616,-2.0609,-2.0591,-2.0587,-2.0571,-2.0563,-2.0552,-2.0503,-2.0468,-2.0524,-2.0464,-2.0507,-2.0508,-2.0523,-2.0524,-2.067,-2.0517,-2.0516,-2.0516,-2.0516,0,-2.0832,-2.0853,-2.0778,-2.0788,-2.081,-2.0749,-2.0773,-2.0745,-2.0716,-2.0721,-2.0659,-2.0666,-2.0599,-2.0598,-2.056,-2.0579,-2.0575,-2.0557,-2.0548,-2.0565,-2.0568,-2.0563,-2.0557,-2.0519,-2.0519,-2.0518,-2.0517,0,-2.0961,-2.0911,-2.0924,-2.0873,-2.086,-2.088,-2.0836,-2.0844,-2.0809,-2.0816,-2.0814,-2.0759,-2.0755,-2.0704,-2.0689,-2.0663,-2.0699,-2.0676,-2.071,-2.0704,-2.075,-2.0748,-2.0901,-2.092,-2.0752,-2.0754,-2.0755,0,-2.103,-2.1045,-2.0996,-2.0995,-2.0976,-2.0974,-2.0967,-2.0908,-2.0904,-2.0872,-2.0885,-2.0876,-2.0866,-2.0863,-2.0823,-2.0812,-2.079,-2.0845,-2.0788,-2.0806,-2.0795,-2.0797,-2.0799,-2.0858,-2.086,-2.0861,-2.0863,0,-2.116,-2.1135,-2.1127,-2.1112,-2.1105,-2.109,-2.1071,-2.1073,-2.1009,-2.1007,-2.1003,-2.0995,-2.0981,-2.0974,-2.0956,-2.0935,-2.089,-2.0881,-2.0891,-2.091,-2.093,-2.0924,-2.0746,-2.0878,-2.0876,-2.0875,-2.0875,-2.0874,-2.1264,-2.1275,-2.1243,-2.1237,-2.1217,-2.1201,-2.1207,-2.1173,-2.1168,-2.1152,-2.1117,-2.1119,-2.1091,-2.1062,-2.1045,-2.1047,-2.1019,-2.1033,-2.1037,-2.1042,-2.1053,-2.0928,-2.1043,-2.1043,-2.1042,-2.1042,-2.1041,0,-2.1393,-2.137,-2.1365,-2.1341,-2.1337,-2.1293,-2.127,-2.1271,-2.1273,-2.125,-2.1242,-2.1238,-2.1232,-2.1192,-2.1182,-2.1191,-2.117,-2.1191,-2.1191,-2.1188,-2.1076,-2.107,-2.1208,-2.1208,-2.1208,-2.1208,-2.1208,-2.1208,-2.1461,-2.1479,-2.1451,-2.1459,-2.1435,-2.1436,-2.1428,-2.1414,-2.1396,-2.1395,-2.1389,-2.1363,-2.1334,-2.1321,-2.1315,-2.1303,-2.1304,-2.1332,-2.1314,-2.1211,-2.1195,-2.118,-2.1174,-2.1332,-2.1332,-2.1426,-2.1427,-2.1428]},{"header":{"parameterUnit":"m.s-1","parameterCategory":1,"la1":30.2991,"la2":30.254,"lo1":-89.0895,"lo2":-89.0444,"dy":0.0017,"dx":0.0017,"nx":28,"ny":28,"refTime":"2024-10-21T09:00:00:Z","depth":0,"parameterNumber":3,"parameterNumberName":"V-component_of_WINDS"},"data":[0,0,0,0,0,0,0,0,0,0,0,0,0,0,0,0,0,0,0,0,0,0,0,0,0,0,0,0,0,0,0,0,0,0,0,0,0,0,0,0,0,0,0,0,0,0,0,0,0,0,0,0,0,0,0,0,0,0,0.4017,0.4017,0,0.4024,0.4024,0.4024,0.4034,0.4034,0.4034,0.4034,0.404,0.404,0.404,0,0,0,0,0,0,0,0,0,0,0,0,0,0.401,0.4011,0.4017,0.4017,0.4017,0.4024,0.4024,0.4024,0.4034,0.4034,0.4034,0.4035,0.404,0.404,0.404,0,0,0,0,0,0,0,0,0,0,0,0,0,0.4015,0.4011,0.4017,0.4023,0.4023,0.4024,0.4024,0.4024,0.4034,0.4034,0.4034,0.4035,0.404,0.404,0.404,0.4034,0,0,0.404,0.404,0,0,0,0,0,0,0,0,0.4015,0.4015,0.4022,0.4022,0.4023,0.4028,0.4023,0.4027,0.4034,0.403,0.4034,0.4035,0.4036,0.4036,0.4037,0.4034,0.4035,0.404,0.404,0.404,0.404,0,0,0,0,0,0,0,0.4014,0.4015,0.4019,0.4022,0.4023,0.4025,0.4025,0.4024,0.4031,0.403,0.4031,0.4032,0.4036,0.4037,0.4037,0.4035,0.404,0.404,0.404,0.404,0.4026,0.4026,0,0,0,0,0,0,0.4013,0.4014,0.4019,0.402,0.4019,0.4024,0.4025,0.4026,0.4031,0.4032,0.4031,0.4032,0.4037,0.4037,0.4037,0.403,0.404,0.404,0.404,0.4027,0.4026,0.4026,0,0,0,0,0,0,0.4013,0.4014,0.4019,0.4017,0.4018,0.4024,0.4025,0.4026,0.4027,0.4032,0.4033,0.4031,0.4037,0.4037,0.4034,0.403,0.404,0.4039,0.4027,0.4027,0.4026,0.4015,0,0,0,0,0,0,0.4013,0.4014,0.4012,0.4017,0.4018,0.4017,0.4025,0.4026,0.4027,0.4028,0.4032,0.4033,0.4037,0.4034,0.4034,0.403,0.4039,0.4027,0.4027,0.4026,0.4016,0.4014,0.4013,0,0,0,0,0,0.4013,0.4009,0.4012,0.4012,0.4016,0.4017,0.4017,0.4023,0.4027,0.4025,0.4028,0.4033,0.4031,0.4034,0.4034,0.403,0.4028,0.4027,0.4026,0.4017,0.4015,0.4013,0,0,0,0,0,0,0.4002,0.4009,0.4013,0.4011,0.4013,0.4018,0.4016,0.4021,0.4022,0.4022,0.4028,0.4029,0.4025,0.4028,0.4031,0.4024,0.403,0.4029,0.4022,0.4021,0.4019,0.4018,0.4039,0,0,0,0,0,0.4,0.4,0.4006,0.4003,0.4004,0.401,0.401,0.4014,0.4017,0.4018,0.4021,0.4022,0.4022,0.4022,0.4022,0.4017,0.4017,0.4013,0.4012,0.4011,0.401,0.4006,0.4004,0.4024,0.4024,0.4024,0,0,0.3995,0.3999,0.3998,0.4001,0.4004,0.4003,0.4011,0.401,0.4009,0.4017,0.4015,0.4017,0.4019,0.4015,0.4013,0.4017,0.4004,0.401,0.4009,0.4008,0.4005,0.4003,0.4001,0.4023,0.4023,0.4023,0,0,0.3985,0.3988,0.3986,0.3988,0.3991,0.3995,0.3994,0.3999,0.4,0.3998,0.4004,0.4003,0.4002,0.4003,0.4004,0.3993,0.3997,0.3993,0.3985,0.3981,0.3979,0.3978,0.3973,0.3971,0.3992,0.3992,0.3992,0,0.3977,0.3977,0.3984,0.3982,0.3983,0.3991,0.3988,0.3989,0.3992,0.3992,0.3996,0.3994,0.3997,0.3992,0.3989,0.399,0.3988,0.3992,0.3979,0.3978,0.3976,0.3972,0.397,0.3991,0.3991,0.3991,0.3991,0,0.3968,0.3967,0.3965,0.3968,0.3968,0.3966,0.3971,0.3971,0.3974,0.3977,0.3974,0.3977,0.3977,0.3976,0.398,0.3972,0.3973,0.3978,0.3984,0.3974,0.3969,0.3968,0.399,0.3991,0.3991,0.3991,0,0,0.3951,0.3957,0.3956,0.3957,0.3961,0.396,0.3958,0.3959,0.3957,0.3959,0.3956,0.3955,0.3959,0.396,0.3963,0.396,0.3949,0.3965,0.3965,0.3961,0.3939,0.3935,0.3932,0.3952,0.3952,0.3952,0.3938,0,0.3941,0.3938,0.3943,0.3938,0.3937,0.3944,0.3942,0.3944,0.3946,0.3945,0.3947,0.3946,0.3952,0.3952,0.3949,0.3951,0.3945,0.3953,0.3949,0.3948,0.3947,0.393,0.3926,0.3913,0.3937,0.3936,0.3936,0,0.3929,0.393,0.3925,0.3928,0.3928,0.3926,0.3926,0.3925,0.3927,0.3929,0.3929,0.3933,0.393,0.3936,0.3931,0.3936,0.3935,0.3935,0.3935,0.3934,0.3941,0.3928,0.3909,0.3907,0.3934,0.3934,0.3934,0,0.3916,0.3916,0.3913,0.3914,0.3918,0.3916,0.3917,0.3919,0.3919,0.3918,0.3918,0.3917,0.3917,0.3916,0.3919,0.3924,0.3913,0.392,0.3913,0.3913,0.391,0.391,0.389,0.3911,0.3911,0.3911,0.3911,0,0.3904,0.39,0.3907,0.3905,0.3901,0.3907,0.3902,0.3904,0.3905,0.3903,0.3909,0.3906,0.3912,0.3909,0.3912,0.3906,0.3906,0.3907,0.3907,0.3906,0.3905,0.3904,0.3904,0.3911,0.3911,0.3911,0.3911,0,0.3889,0.3893,0.389,0.3894,0.3895,0.3891,0.3894,0.3891,0.3894,0.3891,0.389,0.3894,0.3892,0.3895,0.3893,0.3895,0.3887,0.3889,0.3886,0.3886,0.3879,0.3879,0.3856,0.3853,0.3877,0.3877,0.3877,0,0.388,0.3877,0.3881,0.388,0.3881,0.3879,0.3879,0.3884,0.3883,0.3884,0.3881,0.3879,0.3877,0.3872,0.3874,0.3872,0.3874,0.3866,0.3874,0.3871,0.3872,0.3872,0.3871,0.3864,0.3864,0.3864,0.3864,0,0.3864,0.3866,0.3865,0.3865,0.3864,0.3864,0.3864,0.3863,0.3868,0.3867,0.3864,0.3863,0.386,0.3858,0.3856,0.3856,0.386,0.3861,0.3859,0.3857,0.3855,0.3854,0.3881,0.3862,0.3862,0.3862,0.3862,0.3862,0.3851,0.3848,0.385,0.3848,0.3849,0.3849,0.3846,0.3849,0.3847,0.3845,0.3848,0.3845,0.3845,0.3843,0.3843,0.3839,0.3842,0.384,0.3839,0.3838,0.3836,0.3856,0.3839,0.3839,0.3839,0.3839,0.3839,0,0.3834,0.3835,0.3834,0.3834,0.3832,0.3837,0.3837,0.3835,0.3832,0.3832,0.383,0.3826,0.3824,0.3825,0.3822,0.3819,0.3821,0.3818,0.3818,0.3817,0.3834,0.3836,0.3817,0.3817,0.3817,0.3817,0.3817,0.3817,0.3824,0.382,0.3822,0.3817,0.3818,0.3815,0.3815,0.3814,0.3814,0.381,0.3807,0.3809,0.3809,0.3806,0.3803,0.3803,0.3801,0.3798,0.3798,0.3814,0.3816,0.3818,0.382,0.3797,0.3797,0.3781,0.3781,0.3781]}]]